PAGEOS 1 DEB, 2511

Orbit data source: Space-Track

PAGEOS 1 DEB, 2511 is space debris in LEO originally from a launch on Fri, 24 Jun 1966 UTC launched from the Air Force Western Test Range (AFWTR). Debris objects in space refer to the collection of defunct objects orbiting the Earth. Examples of debris include non-operational satellites, rocket bodies, and fragments generated from explosions, collisions, or faulty payload assembly.

Loading next visibility...
Identifier
2511, 1966-056D
Orbit
LEO
Country
Flag of USUS
Related business
Manufacturer
Goodyear
Mission
Spacecraft
Bus & Motor
ECHO CANISTER, Unknown motor
Mass
9 kg wet, 9 kg dry
Launch date (UTC)
1966-06-24 (60 years ago)
Launch vehicle
Unknown
Launch site
Air Force Western Test Range (AFWTR)
Object type
Payload
Rocket body
Debris
Shape & HBR
Unknown
Radar Cross Section
Large (>1 m²)

Expand to show TLE details & history
Last TLE update: 22 hours ago

TLE from 22 hours ago
0 PAGEOS 1 DEB
1 02511U 66056D   26034.01634042  .00000002  00000-0  41356-4 0  9992
2 02511  86.9877 236.5016 0011640 312.8007  47.1820  7.93368693341949
Epoch: 2026-02-03T00:23Z
TLE epoch observation values (Epoch: 2026-02-03T00:23:31.812Z)
Latitude
-0.00001°
Longitude
97.41572°
Altitude
4,234.567 km
Speed
6.132 km/s
True Right ascension
15h 46m 00s
True Declination
0° 00' 00"
Sunlit
Object was in daylight at epoch
Visualization orbit readout
Latitude
Unknown
Longitude
Unknown
Altitude
Unknown
Speed
Unknown
Apparent Right ascension
Unknown
Apparent Declination
Unknown
Sunlit
N/A
Visualization observer readout
Local Sidereal Time
00:35:36
Azimuth
Unknown
Elevation
Unknown
Doppler factor
Unknown
Orbital elements
Apogee altitude
4,251.208 km
Perigee altitude
4,226.492 km
Semi-major axis
10,616.987 km
Eccentricity
0.00116
Inclination
86.9877°
RAAN
236.5016°
Arg. of periapsis
312.8007°
True anomaly
47.27994°
Mean anomaly
47.182°
Eccentric anomaly
47.23096°
Mean motion
1.984 °/min
Orbital period
181.45 mins
BSTAR
0.000041356
Loading maneuver chart data...
Computing Atmospheric mass density...

Documentation

Showing up to 5 results
|